RH
43 37 40 38 29 28 28 27 25 24 24 22 20 19 18 19 24 22 36 39 42 30 25 26 37 39 45 24 26 17 17 16 23 25 12 8 9 11 14 8 7 9 19
49 46 43 48 45 29 28 27 26 27 24 24 22 21 19 18 17 18 21 30 37 35 35 36 28 35 36 25 27 22 22 21 26 20 17 12 9 12 16 21 11 8 7
60 55 52 49 50 44 33 32 31 30 26 26 26 24 21 20 19 20 21 24 26 28 30 30 38 30 36 32 27 20 22 16 13 15 14 11 8 11 9 22 22 19 10
72 70 67 52 61 49 49 53 52 49 43 38 32 28 24 22 21 20 22 25 28 30 32 31 44 37 35 32 28 20 18 14 15 14 14 13 11 8 8 6 22 21 22
93 83 76 72 70 78 57 66 71 74 67 60 46 34 30 27 25 23 22 23 27 35 32 34 40 41 45 32 31 20 18 16 11 9 11 14 17 10 14 12 14 22 26
96 96 91 92 88 82 77 58 42 53 61 60 60 45 40 36 31 29 28 25 27 31 33 37 49 52 42 31 34 24 23 19 13 10 10 12 10 14 11 19 27 28 47
20 39 81 94 92 93 92 83 78 62 65 67 71 63 48 44 40 35 32 31 34 39 40 44 54 47 44 38 33 33 32 26 22 13 10 11 12 16 10 35 42 45 41
23 24 23 22 39 77 86 85 84 77 72 70 73 82 70 70 60 46 46 36 35 39 63 61 50 43 38 34 37 36 31 23 16 11 10 10 7 14 26 42 59 69 46
33 25 25 25 21 20 27 31 45 61 77 79 73 94 79 67 67 60 55 47 43 45 62 68 52 55 48 46 50 42 35 22 17 12 9 12 11 35 59 56 62 72 68
86 69 43 29 25 22 19 19 18 17 24 33 82 77 82 94 68 70 65 67 55 47 53 74 85 81 62 51 53 42 36 28 18 15 10 13 21 43 64 59 81 83 76
77 86 82 78 61 37 32 26 22 21 16 16 18 67 82 59 72 68 66 74 74 64 52 59 66 74 83 69 50 52 35 26 27 26 13 16 34 63 62 72 87 81 82
75 83 83 76 74 73 68 62 48 37 40 30 21 18 49 36 62 72 51 48 61 77 64 68 80 71 71 60 53 46 30 26 24 22 13 21 36 58 54 85 91 79 84
58 71 76 71 64 60 62 62 65 62 55 55 48 38 29 43 44 52 43 50 44 55 69 58 60 53 56 57 50 39 28 23 25 20 12 17 36 72 72 100 100 88 100
33 43 51 54 52 51 58 56 51 49 52 52 51 44 37 43 40 40 25 28 35 36 51 51 60 60 59 43 41 42 26 28 26 18 12 17 38 73 69 100 88 84 97
49 47 42 37 39 47 66 56 52 55 48 44 42 41 36 37 48 40 44 29 31 32 46 41 48 51 53 50 49 42 27 24 22 16 11 18 47 63 73 96 89 100 100
39 41 52 62 72 76 60 68 90 85 65 57 46 39 34 32 41 75 60 52 33 33 46 61 71 57 67 58 47 44 38 24 23 15 11 24 52 53 99 100 97 95 100
34 39 42 39 44 56 70 71 67 68 88 82 66 56 42 35 39 64 100 88 72 59 54 60 79 75 77 81 60 57 42 24 21 14 10 21 48 75 100 100 100 100 100
30 26 25 30 35 34 36 38 52 58 58 62 81 92 73 58 44 43 66 88 98 80 92 92 84 80 70 63 60 58 40 26 22 13 11 16 48 86 100 100 100 100 100
27 25 25 23 22 24 29 30 31 37 47 52 58 68 77 97 73 70 82 63 67 82 79 80 97 98 83 73 67 58 43 42 26 13 13 13 26 88 100 100 94 100 100
28 28 26 24 24 22 21 22 25 26 27 37 46 51 60 85 94 99 99 100 97 82 79 75 88 75 87 76 74 56 43 44 29 19 13 12 18 66 100 100 100 96 100
21 21 21 24 27 25 21 20 20 23 25 24 28 37 42 51 65 72 91 100 100 100 93 93 99 81 65 53 53 44 57 42 35 29 14 14 15 35 100 100 100 100 89
28 26 23 20 19 18 19 19 17 16 18 21 22 24 30 34 41 55 60 76 99 100 100 96 92 86 68 40 51 34 60 47 38 20 16 19 18 15 28 96 100 100 100
27 24 22 20 18 15 15 17 18 17 15 15 18 21 23 27 29 39 47 51 70 100 100 100 93 93 72 57 58 32 48 36 29 20 22 24 20 18 19 25 97 100 100
26 17 13 12 12 12 12 12 14 15 16 13 14 15 19 22 25 26 33 48 53 73 98 100 100 93 81 94 85 64 46 28 21 22 25 32 24 24 20 22 31 87 100
16 14 12 11 10 10 10 10 11 10 12 13 12 13 15 16 20 24 25 28 43 56 63 94 100 100 90 75 83 75 61 36 38 32 36 39 33 36 30 28 27 38 78
10 8 8 8 8 8 8 9 10 10 11 13 12 11 12 15 16 17 22 25 27 34 55 59 77 93 100 85 84 66 70 51 51 48 48 61 53 43 51 53 81 67 38
Wind_Speed
41 39 40 41 43 43 40 37 36 35 34 31 29 27 27 27 30 31 32 31 31 31 32 32 31 30 29 32 33 35 34 33 33 34 36 39 42 44 49 49 50 49 50
45 43 42 44 42 44 43 41 41 39 38 36 34 33 32 31 31 33 33 34 34 34 33 34 31 30 32 33 35 35 36 35 35 36 38 40 44 47 47 50 54 55 55
49 48 47 45 45 45 45 44 43 44 42 39 40 39 38 37 37 37 38 37 36 37 37 38 37 35 34 37 36 35 36 37 38 40 42 41 43 47 45 47 53 57 60
54 53 52 50 49 51 50 48 45 45 45 44 44 43 42 42 41 41 41 41 41 40 41 40 42 38 37 40 39 37 38 40 39 40 42 44 47 46 47 48 49 58 62
58 58 56 55 55 57 56 54 53 49 49 48 47 46 47 47 46 45 46 45 45 45 44 42 43 43 43 42 41 39 39 39 38 39 43 44 47 49 49 49 46 50 59
63 64 62 60 59 60 62 62 59 56 52 52 50 51 51 52 52 51 50 50 49 48 47 44 43 45 45 45 41 38 40 38 39 40 42 42 47 46 46 39 35 42 48
60 61 65 66 64 66 66 65 64 61 59 55 54 55 55 57 56 55 54 53 51 50 48 46 45 47 47 46 44 41 40 38 38 41 42 39 44 41 35 29 30 34 42
63 62 62 62 65 68 70 69 68 65 63 59 58 57 56 55 57 56 58 56 54 53 49 49 49 47 47 46 45 43 42 37 38 42 39 38 40 29 23 24 25 29 36
71 68 66 65 65 65 66 66 68 69 65 65 64 61 61 61 61 59 59 60 57 56 53 51 50 49 48 45 42 42 42 37 37 41 36 36 30 18 17 19 20 23 28
74 73 73 72 71 70 69 69 67 66 65 63 63 65 63 63 61 65 63 61 62 59 58 56 58 54 51 51 48 44 41 38 36 39 33 33 21 15 14 16 17 20 24
76 76 77 77 77 77 76 75 72 71 69 66 65 66 70 68 67 66 65 64 63 61 61 61 62 60 55 55 52 49 44 40 37 40 35 32 17 11 12 12 15 19 20
78 79 80 81 80 80 81 82 81 79 77 73 70 68 72 71 71 72 70 69 67 65 62 62 61 60 59 58 53 51 48 41 38 39 35 28 18 12 16 13 11 15 25
84 85 85 85 86 85 86 86 84 83 85 82 78 75 74 77 76 76 73 70 67 68 67 68 68 63 58 58 57 53 48 43 38 35 35 25 16 13 19 16 14 17 20
89 90 91 92 92 91 91 91 91 91 91 87 84 82 79 82 80 79 74 72 72 69 69 71 70 66 65 63 59 54 49 42 38 36 35 21 20 20 24 20 19 16 20
71 76 81 85 86 87 89 91 92 92 95 95 92 89 86 85 85 84 80 78 76 72 70 68 70 68 67 64 61 56 48 40 35 37 34 22 24 24 24 27 23 17 22
72 75 75 75 76 78 83 88 87 87 90 91 93 93 94 91 89 88 84 83 80 77 75 73 72 68 67 66 63 57 51 43 36 37 37 23 24 29 32 32 35 41 51
77 79 80 82 83 81 81 82 85 89 91 92 92 92 93 93 93 92 91 91 87 84 80 77 75 73 71 69 65 61 54 45 36 37 35 27 30 36 36 37 25 22 46
84 86 87 87 88 91 90 86 86 86 86 88 90 89 90 93 94 96 97 97 94 89 84 83 82 76 75 73 68 63 56 47 40 37 35 26 37 39 41 38 39 45 60
93 94 96 97 97 96 96 97 96 91 91 89 89 91 92 91 92 93 89 89 92 92 88 87 84 79 76 74 65 61 57 52 46 39 37 27 43 42 50 49 41 40 51
99 101 103 103 104 105 105 103 103 103 101 95 94 92 92 94 93 92 95 87 84 82 88 88 85 81 79 70 67 64 59 56 49 49 42 36 35 52 54 58 48 46 48
103 107 109 112 112 113 112 111 111 109 107 106 102 99 95 93 96 98 94 93 92 87 81 79 80 78 75 73 69 66 62 57 54 54 47 42 33 50 58 62 56 54 49
113 115 116 118 118 118 117 118 118 117 115 112 110 107 103 99 93 95 99 97 92 89 86 84 79 76 74 72 63 61 57 62 60 52 50 48 42 41 56 65 62 61 57
120 124 125 125 123 120 120 120 121 121 121 119 117 114 112 108 102 97 95 96 96 93 88 84 84 77 75 71 65 59 61 60 62 57 54 52 50 47 48 61 68 71 66
128 129 125 122 121 122 121 124 124 124 125 123 122 120 118 116 111 105 101 95 96 93 92 90 84 79 77 72 71 68 65 62 60 57 58 56 55 56 48 56 71 70 72
131 131 130 128 125 122 121 124 125 126 126 127 125 122 121 121 119 112 109 103 96 96 92 92 92 83 81 78 73 72 72 70 69 65 64 62 59 56 63 58 59 73 75
118 119 122 124 124 125 125 124 125 127 128 131 129 125 126 123 122 121 117 109 105 99 94 89 92 92 84 80 77 73 73 76 74 71 70 67 62 63 62 63 57 65 77
Wind_Direction
247 254 251 254 257 259 259 260 264 266 267 267 263 264 261 256 258 256 252 249 254 256 257 252 260 265 274 277 280 282 284 284 281 276 267 264 258 257 256 251 245 242 240
247 248 253 250 252 259 256 258 259 262 263 263 261 265 257 264 260 257 256 257 254 256 258 265 266 263 275 276 279 280 285 282 279 279 272 269 263 257 252 256 252 246 243
242 244 241 249 248 245 252 252 254 257 259 260 261 259 253 253 258 257 259 257 256 257 256 263 265 269 276 280 282 280 283 282 285 284 276 276 272 264 258 254 249 250 246
238 238 240 242 243 241 241 246 248 250 252 254 255 257 254 252 255 256 253 253 254 253 256 263 264 267 275 280 282 281 281 284 286 286 283 278 276 275 271 264 254 246 245
242 241 240 239 239 240 241 242 248 250 251 252 250 251 250 251 250 252 253 251 252 254 257 260 262 268 273 277 282 280 281 284 287 290 288 284 283 281 284 280 268 246 238
246 246 244 241 240 241 241 248 249 246 245 249 252 251 251 252 250 249 250 250 251 254 258 260 261 266 269 273 279 280 283 290 290 293 296 293 291 287 280 271 258 243 238
247 248 248 248 245 243 245 249 251 249 246 243 246 247 249 250 252 252 255 253 253 254 254 255 258 262 268 274 278 279 283 292 294 294 300 302 297 285 270 261 247 246 243
249 249 249 250 251 248 248 250 252 252 250 246 249 247 245 248 251 253 255 256 257 258 256 252 256 260 266 271 276 280 281 289 294 298 305 303 298 279 261 251 247 254 241
250 249 249 248 248 249 250 251 252 251 250 252 251 246 247 246 246 246 252 254 255 258 257 250 254 259 264 269 275 279 281 288 296 302 307 310 293 267 247 246 245 249 245
249 250 250 249 250 250 251 251 251 251 250 248 248 250 246 248 249 248 249 252 252 254 256 254 257 261 260 264 272 278 282 286 294 304 296 313 275 239 233 239 241 236 237
250 250 250 250 251 252 253 252 251 252 251 250 248 248 252 251 249 248 247 249 251 253 253 257 259 259 262 264 269 274 279 282 288 299 293 308 252 226 224 236 237 224 231
250 251 251 251 251 252 252 252 253 253 252 253 252 250 251 251 252 253 252 249 249 251 251 254 256 259 260 263 266 272 275 278 285 292 290 302 240 233 208 223 243 225 229
249 248 248 251 254 255 254 253 252 254 254 253 252 250 250 250 250 249 252 254 252 250 250 253 255 257 258 261 264 269 277 276 286 285 282 291 223 211 185 198 216 217 228
250 248 247 249 250 251 252 253 253 253 254 253 251 251 249 249 250 250 252 253 253 254 253 254 255 256 257 261 265 268 273 273 280 279 273 270 221 204 189 178 191 216 218
255 255 254 252 250 249 250 250 249 251 252 252 251 250 249 249 249 250 251 251 252 252 252 254 253 255 256 259 263 267 269 269 273 271 270 253 220 201 181 177 171 263 225
254 251 249 250 252 254 253 249 248 249 248 249 249 249 247 247 246 246 248 250 250 249 248 249 250 252 253 256 260 264 263 263 265 265 264 226 219 191 191 187 185 203 239
257 256 254 250 245 247 249 250 251 251 247 248 247 247 247 246 244 243 243 246 247 248 247 247 247 250 252 254 257 257 259 259 258 258 248 228 218 200 194 201 192 212 211
264 263 259 257 254 249 244 247 248 247 247 248 247 245 245 245 244 244 244 243 244 244 245 246 247 249 253 254 254 256 255 254 254 249 239 226 216 208 197 197 197 196 208
264 262 261 260 257 255 253 248 245 246 245 244 245 246 245 245 243 242 244 244 244 244 244 244 245 247 249 251 249 249 252 251 249 249 231 220 222 215 201 207 196 193 209
266 265 263 261 258 256 254 251 249 247 244 244 244 243 244 242 242 241 241 242 242 243 244 245 246 249 247 247 247 251 251 244 243 246 235 224 221 215 209 204 217 212 211
263 262 261 258 258 257 255 253 250 248 246 243 243 243 242 242 242 241 241 240 240 242 240 242 243 244 246 248 249 247 248 241 247 247 229 219 225 220 214 210 216 224 223
270 267 264 260 257 255 255 255 252 248 246 245 242 241 243 241 241 242 240 239 239 237 240 240 240 241 245 245 242 242 241 245 246 238 228 222 225 225 223 223 220 221 224
271 267 264 263 262 259 254 252 251 251 247 243 242 241 240 241 240 240 240 238 236 236 235 237 240 238 240 240 240 242 243 240 235 233 227 229 224 229 228 228 227 226 228
272 271 272 269 265 262 257 253 250 250 248 244 241 240 239 239 239 239 239 238 237 234 234 233 235 235 237 236 237 238 241 236 231 235 236 232 225 228 232 234 231 233 234
278 277 275 273 269 264 260 256 251 249 249 246 241 239 237 237 237 237 238 237 236 234 233 233 231 231 233 236 235 237 238 233 236 236 234 231 230 230 228 235 238 233 238
279 276 272 269 266 264 261 257 253 250 246 245 243 241 236 235 235 235 236 236 236 233 232 231 233 231 230 231 232 233 234 232 233 233 230 231 231 230 235 233 234 240 237